Hyannis, MA

3:58 PM EDT on September 22, 2017 (GMT -0400)
Barnstable Municipal-Boardman-Polando Field

Weather History for KHYA - May, 2013

Change the Weather History Date:

Sunday, May 12, 2013

  Actual Average Record
Temperature  
Mean Temperature 60 °F -  
Max Temperature 66 °F 62 °F 81 °F (1959)
Min Temperature 52 °F 46 °F 33 °F (1962)
Degree Days  
Heating Degree Days 6    
Growing Degree Days 10 (Base 50)    
Moisture  
Dew Point 54 °F    
Average Humidity 88    
Maximum Humidity 100    
Minimum Humidity 53    
Precipitation  
Precipitation 0.20 in - - ()
Sea Level Pressure  
Sea Level Pressure 29.67 in    
Wind  
Wind Speed 10 mph (SW)    
Max Wind Speed 23 mph    
Max Gust Speed 30 mph    
Visibility 6 miles    
Events Rain    
Averages and records for this station are not official NWS values.
T = Trace of Precipitation, MM = Missing Value Source: NWS Daily Summary

Daily Weather History Graph

Daily Weather History Graph

Search for Another Location

Airport or City:

Trip Planner

Search our weather history database for the weather conditions in past years. The results will help you decide how hot, cold, wet, or windy it might be!

Date:

Astronomy

May. 12, 2013 Rise Set
Actual Time 5:24 AM EDT 7:51 PM EDT
Civil Twilight 4:53 AM EDT 8:22 PM EDT
Nautical Twilight 4:14 AM EDT 9:01 PM EDT
Astronomical Twilight 3:30 AM EDT 9:45 PM EDT
Moon 7:16 AM EDT (5/12) 10:16 PM EDT (5/12)
Length of Visible Light 15h 29m
Length of Day
14h 26m
Waxing Crescent, 6% of the Moon is Illuminated
May 12
Waxing Crescent
May 18
First Quarter
May 25
Full
May 31
Last Quarter
Jun 8
New

Hourly Weather History & Observations

Time (EDT) Temp. Dew Point Humidity Pressure Visibility Wind Dir Wind Speed Gust Speed Precip Events Conditions
12:56 AM 57.9 °F 57.0 °F 97% 29.73 in 5.0 mi SSW 10.4 mph - 0.05 in Rain Light Rain
1:56 AM 57.0 °F 57.0 °F 100% 29.72 in 5.0 mi SW 11.5 mph - 0.00 in   Overcast
2:35 AM 57.2 °F 57.2 °F 100% 29.69 in 1.8 mi SSW 9.2 mph - N/A   Overcast
2:56 AM 57.9 °F 57.9 °F 100% 29.69 in 2.0 mi South 9.2 mph - N/A   Overcast
3:19 AM 57.2 °F 57.2 °F 100% 29.69 in 4.0 mi SSW 10.4 mph - N/A   Overcast
3:35 AM 57.2 °F 57.2 °F 100% 29.69 in 1.8 mi SSW 11.5 mph - N/A   Overcast
3:56 AM 57.0 °F 57.0 °F 100% 29.69 in 1.0 mi South 9.2 mph - N/A   Mist
4:03 AM 57.2 °F 57.2 °F 100% 29.68 in 0.8 mi South 8.1 mph - N/A   Mist
4:29 AM 57.2 °F 57.2 °F 100% 29.66 in 1.2 mi South 8.1 mph - N/A   Overcast
4:36 AM 57.2 °F 57.2 °F 100% 29.66 in 3.0 mi South 8.1 mph - N/A   Overcast
4:51 AM 57.2 °F 57.2 °F 100% 29.67 in 1.5 mi South 9.2 mph - N/A   Overcast
4:56 AM 57.0 °F 57.0 °F 100% 29.69 in 1.0 mi SSW 10.4 mph - N/A   Overcast
5:56 AM 57.0 °F 57.0 °F 100% 29.69 in 1.5 mi South 10.4 mph - 0.02 in Rain Rain
6:16 AM 57.2 °F 57.2 °F 100% 29.68 in 2.5 mi SSW 8.1 mph - 0.00 in Rain Light Rain
6:56 AM 57.0 °F 57.0 °F 100% 29.66 in 1.5 mi SSW 9.2 mph - 0.01 in Rain Light Rain
7:10 AM 57.2 °F 57.2 °F 100% 29.66 in 0.8 mi South 9.2 mph - 0.00 in Rain Light Rain
7:18 AM 57.2 °F 57.2 °F 100% 29.65 in 1.0 mi South 8.1 mph - 0.01 in Rain Light Rain
7:46 AM 57.2 °F 57.2 °F 100% 29.64 in 3.0 mi SSW 8.1 mph - 0.03 in Rain Light Rain
7:56 AM 57.0 °F 57.0 °F 100% 29.65 in 4.0 mi SW 10.4 mph - 0.04 in Rain Light Rain
8:56 AM 57.0 °F 57.0 °F 100% 29.63 in 6.0 mi SW 3.5 mph - 0.07 in Rain Light Rain
9:56 AM 59.0 °F 57.9 °F 96% 29.62 in 10.0 mi SSW 6.9 mph - 0.01 in   Overcast
10:56 AM 60.1 °F 59.0 °F 96% 29.62 in 9.0 mi SSW 4.6 mph - 0.00 in   Overcast
11:56 AM 62.1 °F 59.0 °F 90% 29.63 in 10.0 mi SW 8.1 mph - N/A   Mostly Cloudy
12:56 PM 63.0 °F 57.9 °F 84% 29.63 in 10.0 mi SW 17.3 mph 23.0 mph N/A   Scattered Clouds
1:56 PM 61.0 °F 55.9 °F 83% 29.62 in 10.0 mi SW 16.1 mph 23.0 mph N/A   Clear
2:56 PM 63.0 °F 54.0 °F 72% 29.61 in 10.0 mi SW 17.3 mph 26.5 mph N/A   Clear
3:56 PM 64.9 °F 52.0 °F 63% 29.60 in 10.0 mi SW 23.0 mph 28.8 mph N/A   Clear
4:56 PM 64.0 °F 51.1 °F 63% 29.60 in 10.0 mi WSW 18.4 mph 27.6 mph N/A   Clear
5:56 PM 63.0 °F 48.0 °F 58% 29.62 in 10.0 mi WSW 17.3 mph 29.9 mph N/A   Clear
6:56 PM 62.1 °F 46.9 °F 58% 29.64 in 10.0 mi WSW 16.1 mph 26.5 mph N/A   Clear
7:56 PM 57.0 °F 48.9 °F 74% 29.68 in 10.0 mi WSW 10.4 mph 20.7 mph N/A   Clear
8:56 PM 57.0 °F 48.0 °F 72% 29.70 in 10.0 mi WNW 8.1 mph - N/A   Clear
9:56 PM 57.0 °F 41.0 °F 55% 29.74 in 10.0 mi NW 6.9 mph - N/A   Partly Cloudy
10:56 PM 55.0 °F 37.9 °F 53% 29.77 in 10.0 mi NW 4.6 mph - N/A   Partly Cloudy
11:56 PM 52.0 °F 36.0 °F 54% 29.81 in 10.0 mi Calm Calm - N/A   Partly Cloudy